Location: Lecco
(45.8566°N, 9.3977°E)
Time: 04:55:03
(UTC+02:00)

Transit 4A - Pass Details

Date: 18 August 2020
Orbit: 863 x 982 km, 66.8° (Epoch: 23 September)

Event Time Altitude Azimuth Distance (km) Brightness Sun altitude
Rises 19:26:50 0° 310° (NW) 3,677 12.1 9.0°
Reaches altitude 10° 19:30:56 10° 285° (WNW) 2,734 13.4 8.3°
Maximum altitude 19:33:42 13° 259° (W) 2,507 11.8 7.8°
Drops below altitude 10° 19:36:28 10° 233° (SW) 2,730 11.1 7.4°
Sets 19:40:35 0° 208° (SSW) 3,666 11.2 6.7°
